Скво-Хилл

США     39°20′27″N   122°41′06″W
темп.,
°C
ветер,
м/с
пор.,
м/с
влажн.,
%
обл.,
%
осадки,
мм/ч
давл.,
гПа
погр.,
м
16 октября, сб
сб1623:00+13с11355 0.0 102010
02:00+12ссв11375 0.0 102010
05:00+12ссв11365 0.0 101910
08:00+13св11385 0.0 101811
11:00+23ююв22201 0.0 1016816
14:00+25ю33165 0.0 10131655
17:00+23юз44155 0.0 10121357
20:00+13з223744 0.0 101420
17 октября, вс
вс1723:00+12зсз113354 0.0 101417
02:00+11зсз112492 0.0 101312
05:00+10зюз112770 0.0 101114
08:00+10зюз223097 0.0 101135
11:00+15юз3824100 0.0 10101158
14:00+16юз7113180 0.0 10071876
17:00+8юз41191100 1.4 10071345
20:00+4з4109481 3.4 1010743
18 октября, пн
пн1823:00+4з489595 3.5 1012553
02:00+3зсз369191 0.0 1014422
05:00+2зсз359228 0.0 1016297
08:00+2с11860 0.0 101825
11:00+9юв11524 0.0 1017990
14:00+13ю223652 0.0 10151897
17:00+11вюв224067 0.0 10141429
20:00+4ссв11744 0.0 101813
19 октября, вт
вт1923:00+4с1176100 0.0 101811
02:00+4св1174100 0.0 101711
05:00+3св117784 0.0 101714
08:00+4всв1175100 0.0 101723
11:00+11юв3438100 0.0 1015763
14:00+15ююв45295 0.0 10131290
17:00+13ююз3434100 0.0 10131206
20:00+7юв2255100 0.0 101440
20 октября, ср
ср2023:00+8ююз1347100 0.0 1015109
02:00+5з1182100 1.8 101653
05:00+7ю0195100 4.4 101762
08:00+7вюв2298100 0.9 1018115
11:00+8юв129599 1.0 1019151
14:00+9вюв2295100 0.1 1019152
17:00+8в2297100 0.1 1019142
20:00+8всв2396100 0.4 102096